SCP
0 0 0 0 0 0 0 0 0 0 0 0 0 0 0 0 0 0 0 0 0 0
0 0 0 0 0 0 0 0 0 0 0 0 0 0 0 0 0 0 0 0 0 0
0 0 0 0 0 0 0 0 0 0 0 0 0 0 0 0 0 0 0 0 0 0
0 0 0 0 0 0 0 0 0 0 0 0 0 0 0 0 0 0 0 0 0 0
0 0 0 0 0 0 0 0 0 0 0 0 0 0 0 0 0 0 0 0 0 0
0 0 0 0 0 0 0 0 0 0 0 0 0 0 0 0 0 0 0 0 0 0
0 0 0 0 0 0 0 0 0 0 0 0 0 0 0 0 0 0 0 0 0 0
0 0 0 0 0 0 0 0 0 0 0 0 0 0 0 0 0 0 0 0 0 0
0 0 0 0 0 0 0 0 0 0 0 0 0 0 0 0 0 0 0 0 0 0
0 0 0 0 0 0 0 0 0 0 0 0 0 0 0 0 0 0 0 0 0 0
0 0 0 0 0 0 0 0 0 0 0 0 0 0 0 0 0 0 0 0 0 0
0 0 0 0 0 0 0 0 0 -0 0 0 0 -0 0 0 0 0 0 0 0 0
0 0 0 0 0 0 0 0 0 0 0 0 0 0 0 0 0 0 0 0 0 0
0 0 0 0 0 0 0 0 0 0 0 0 0 0 0 0 0 0 0 0 0 0
Wind_Speed_500mb
108 128 127 126 124 116 108 98 89 83 74 70 62 50 43 39 38 35 29 25 20 11
129 123 130 127 120 120 106 94 84 79 73 65 60 56 46 42 43 37 32 26 15 5
115 125 126 126 126 117 108 97 91 82 74 70 65 57 57 54 43 33 25 18 17 20
91 123 119 125 124 117 105 102 91 85 81 75 73 72 70 54 43 39 28 29 22 24
106 111 116 115 121 114 110 94 92 86 77 73 77 71 58 49 46 31 29 27 30 35
94 107 109 110 112 102 92 96 92 77 68 76 74 63 55 53 42 41 35 34 37 33
92 101 100 102 111 101 106 98 80 73 71 74 64 61 53 52 49 40 41 38 35 32
99 98 99 105 106 110 101 94 85 79 76 69 66 59 54 52 44 44 38 37 35 31
87 92 97 97 100 100 92 82 80 73 76 66 63 57 55 49 45 40 37 34 31 29
89 89 89 95 100 93 87 84 80 72 68 59 60 54 49 44 40 35 32 32 28 29
88 94 97 97 91 91 82 77 74 70 65 60 52 48 42 36 34 33 31 30 28 29
87 94 97 98 93 87 80 77 73 69 62 56 47 39 37 36 32 32 31 29 28 31
94 94 94 90 85 78 75 71 66 62 49 39 37 36 32 30 29 30 27 28 29 32
87 88 85 80 77 76 72 64 52 43 40 37 33 30 30 29 28 24 26 28 29 30
Wind_Direction_500mb
216 209 218 214 208 205 207 207 209 210 212 213 209 194 195 204 203 203 195 195 201 204
206 208 213 211 211 205 205 207 205 208 209 203 199 193 192 201 192 181 175 174 173 161
197 204 211 211 209 203 201 206 202 199 202 192 186 179 176 180 178 179 171 172 202 234
203 201 211 211 204 198 202 195 195 197 195 194 188 184 187 200 197 188 187 209 202 225
197 203 205 207 203 198 189 191 195 194 195 198 190 189 193 180 176 193 219 199 218 223
211 204 203 203 194 190 191 191 190 193 198 189 189 178 171 183 200 220 192 211 220 225
207 205 199 195 190 186 189 186 188 186 188 186 176 175 182 201 212 186 206 214 221 229
191 195 196 188 186 183 181 181 180 179 173 171 174 197 208 185 185 205 209 214 224 235
194 193 188 185 179 174 173 176 173 172 170 182 193 192 176 187 203 206 212 221 230 241
186 182 178 176 173 171 172 169 168 176 182 184 174 173 190 199 204 209 217 228 240 252
175 171 169 167 166 166 166 169 171 179 174 167 177 191 197 202 209 216 224 234 247 263
167 162 163 163 164 162 162 168 169 165 168 180 189 194 200 209 216 224 232 244 256 266
160 158 159 159 158 159 160 160 164 175 182 183 192 199 206 218 230 236 242 252 262 272
154 152 152 155 153 150 157 168 176 178 181 189 196 204 214 224 235 245 255 260 266 276
Wind_Speed_850mb
108 128 127 126 124 116 108 98 89 83 74 70 62 50 43 39 38 35 29 25 20 11
129 123 130 127 120 120 106 94 84 79 73 65 60 56 46 42 43 37 32 26 15 5
115 125 126 126 126 117 108 97 91 82 74 70 65 57 57 54 43 33 25 18 17 20
91 123 119 125 124 117 105 102 91 85 81 75 73 72 70 54 43 39 28 29 22 24
106 111 116 115 121 114 110 94 92 86 77 73 77 71 58 49 46 31 29 27 30 35
94 107 109 110 112 102 92 96 92 77 68 76 74 63 55 53 42 41 35 34 37 33
92 101 100 102 111 101 106 98 80 73 71 74 64 61 53 52 49 40 41 38 35 32
99 98 99 105 106 110 101 94 85 79 76 69 66 59 54 52 44 44 38 37 35 31
87 92 97 97 100 100 92 82 80 73 76 66 63 57 55 49 45 40 37 34 31 29
89 89 89 95 100 93 87 84 80 72 68 59 60 54 49 44 40 35 32 32 28 29
88 94 97 97 91 91 82 77 74 70 65 60 52 48 42 36 34 33 31 30 28 29
87 94 97 98 93 87 80 77 73 69 62 56 47 39 37 36 32 32 31 29 28 31
94 94 94 90 85 78 75 71 66 62 49 39 37 36 32 30 29 30 27 28 29 32
87 88 85 80 77 76 72 64 52 43 40 37 33 30 30 29 28 24 26 28 29 30
Wind_Direction_850mb
216 209 218 214 208 205 207 207 209 210 212 213 209 194 195 204 203 203 195 195 201 204
206 208 213 211 211 205 205 207 205 208 209 203 199 193 192 201 192 181 175 174 173 161
197 204 211 211 209 203 201 206 202 199 202 192 186 179 176 180 178 179 171 172 202 234
203 201 211 211 204 198 202 195 195 197 195 194 188 184 187 200 197 188 187 209 202 225
197 203 205 207 203 198 189 191 195 194 195 198 190 189 193 180 176 193 219 199 218 223
211 204 203 203 194 190 191 191 190 193 198 189 189 178 171 183 200 220 192 211 220 225
207 205 199 195 190 186 189 186 188 186 188 186 176 175 182 201 212 186 206 214 221 229
191 195 196 188 186 183 181 181 180 179 173 171 174 197 208 185 185 205 209 214 224 235
194 193 188 185 179 174 173 176 173 172 170 182 193 192 176 187 203 206 212 221 230 241
186 182 178 176 173 171 172 169 168 176 182 184 174 173 190 199 204 209 217 228 240 252
175 171 169 167 166 166 166 169 171 179 174 167 177 191 197 202 209 216 224 234 247 263
167 162 163 163 164 162 162 168 169 165 168 180 189 194 200 209 216 224 232 244 256 266
160 158 159 159 158 159 160 160 164 175 182 183 192 199 206 218 230 236 242 252 262 272
154 152 152 155 153 150 157 168 176 178 181 189 196 204 214 224 235 245 255 260 266 276